sat.trackr.live / text

‹ back to catalog

STARLINK-5861

NORAD 55921 · 2023-037H

PAYLOAD ACTIVE UNKNOWN

§ Identity

Operator
Country
US
Launch date
2023-03-17
Launch site
AFWTR
Launch vehicle
Mass (kg)
RCS (m²)

Purposes: comms

External: N2YO · Heavens-Above · Gunter

§ Orbital elements

Epoch: 2026-09-20T11:07:12.275328Z

Period
96.11 min
Inclination
70.0024°
Eccentricity
0.0002820
Mean motion
14.98327982 rev/d
Perigee alt
570.1 km
Apogee alt
574.0 km
Semi-major
6,950.2 km
B*
6.3952e-5
RAAN
173.3120°
Arg perigee
274.3104°
Mean anomaly
85.7733°
Rev number
19,266

§ Raw data

STARLINK-58611 55921U 23037H   26263.46333652  .00000670  00000+0  63952-4 0  99992 55921  70.0024 173.3120 0002820 274.3104  85.7733 14.98327982192667

JSON: /api/v1/satellites/55921 · /tle

For live sub-satellite position, see the globe view (requires WebGL).

§ Visibility from observer

Set your observer location to see the next 7 days of passes ≥ 10°. The values pass through the URL so the page stays shareable.

No JS? Fill the form by hand. The geolocation button needs JavaScript.